Location: ?astrovice
(49.6513°N, 14.9287°E)
Time: 09:20:52
(UTC+00:00)

DMSP B5D2-2 - Pass Details

Date: 09 April 2020
Orbit: 791 x 805 km, 98.3° (Epoch: 24 May)

Event Time Altitude Azimuth Distance (km) Brightness Sun altitude
Rises 18:57:44 0° 17° (NNE) 3,305 7.4 -11.8°
Reaches altitude 10° 19:00:07 10° 22° (NNE) 2,372 6.6 -12.2°
Maximum altitude 19:05:16 57° 101° (E) 937 4.1 -12.9°
Drops below altitude 10° 19:10:24 10° 179° (S) 2,363 6.2 -13.6°
Sets 19:12:46 0° 184° (S) 3,291 7.0 -14.0°
